Shannon, Ireland

8:17 AM IST on June 23, 2017 (GMT +0100)
Shannon

Weather History for EINN - May, 2012

Change the Weather History Date:

Friday, May 4, 2012

  Actual Average Record
Temperature  
Mean Temperature 50 °F -  
Max Temperature 55 °F 61 °F 73 °F (2007)
Min Temperature 45 °F 46 °F 41 °F (2002)
Degree Days  
Heating Degree Days 15    
Moisture  
Dew Point 45 °F    
Average Humidity 83    
Maximum Humidity 93    
Minimum Humidity 65    
Precipitation  
Precipitation 0.01 in 0.08 in - ()
Sea Level Pressure  
Sea Level Pressure 29.80 in    
Wind  
Wind Speed 10 mph ()    
Max Wind Speed 17 mph    
Max Gust Speed -    
Visibility 7.0 miles    
Events Rain    
Averages and records for this station are not official NWS values.
T = Trace of Precipitation, MM = Missing Value Source: Averaged Metar Reports

Daily Weather History Graph

Daily Weather History Graph

Search for Another Location

Airport or City:

Trip Planner

Search our weather history database for the weather conditions in past years. The results will help you decide how hot, cold, wet, or windy it might be!

Date:

Astronomy

May. 04, 2012 Rise Set
Actual Time 5:57 AM IST 9:08 PM IST
Civil Twilight 5:16 AM IST 9:49 PM IST
Nautical Twilight 4:23 AM IST 10:43 PM IST
Astronomical Twilight 3:11 AM IST 11:57 PM IST
Moon 7:22 PM IST (5/4) 4:43 AM IST (5/4)
Length of Visible Light 16h 32m
Length of Day
15h 11m
Waxing Gibbous, 96% of the Moon is Illuminated
May 4
Waxing Gibbous
May 6
Full
May 12
Last Quarter
May 21
New
May 28
First Quarter

Hourly Weather History & Observations

Time (IST) Temp. Windchill Dew Point Humidity Pressure Visibility Wind Dir Wind Speed Gust Speed Precip Events Conditions
12:00 AM 48.2 °F - 46.4 °F 93% 29.83 in 6.2 mi North 13.8 mph - N/A   Scattered Clouds
12:30 AM 46.4 °F 40.4 °F 44.6 °F 93% 29.80 in 6.2 mi North 13.8 mph - N/A   Partly Cloudy
1:00 AM 47 °F - 45 °F 91% 29.83 in 16 mi North 13.4 mph - -   Partly Cloudy
1:00 AM 46.4 °F 40.4 °F 44.6 °F 93% 29.83 in 6.2 mi North 13.8 mph - N/A   Scattered Clouds
1:30 AM 46.4 °F 41.5 °F 44.6 °F 93% 29.80 in 6.2 mi North 10.4 mph - N/A   Scattered Clouds
2:00 AM 46.4 °F 41.9 °F 44.6 °F 93% 29.80 in 6.2 mi North 9.2 mph - N/A   Partly Cloudy
2:30 AM 46.4 °F 41.9 °F 44.6 °F 93% 29.80 in - North 9.2 mph - N/A   Clear
3:00 AM 46.4 °F 41.9 °F 44.6 °F 93% 29.80 in 6.2 mi North 9.2 mph - N/A   Scattered Clouds
3:30 AM 46.4 °F 42.4 °F 44.6 °F 93% 29.80 in 6.2 mi North 8.1 mph - N/A   Mostly Cloudy
4:00 AM 46.4 °F 42.9 °F 44.6 °F 93% 29.80 in 6.2 mi North 6.9 mph - N/A   Partly Cloudy
4:30 AM 46.4 °F 42.4 °F 44.6 °F 93% 29.80 in - NNW 8.1 mph - N/A   Clear
5:00 AM 46.4 °F 41.9 °F 44.6 °F 93% 29.80 in 6.2 mi North 9.2 mph - N/A   Partly Cloudy
5:30 AM 46.4 °F 42.4 °F 44.6 °F 93% 29.77 in 6.2 mi North 8.1 mph - N/A   Partly Cloudy
6:00 AM 46.4 °F 42.9 °F 44.6 °F 93% 29.77 in 6.2 mi North 6.9 mph - N/A   Partly Cloudy
6:30 AM 46.4 °F 42.4 °F 44.6 °F 93% 29.80 in 6.2 mi North 8.1 mph - N/A   Mostly Cloudy
7:00 AM 47 °F - 44 °F 86% 29.80 in 9 mi North 8.9 mph - -   Scattered Clouds
7:00 AM 46.4 °F 41.9 °F 44.6 °F 93% 29.80 in 6.2 mi North 9.2 mph - N/A   Mostly Cloudy
7:30 AM 46.4 °F 42.4 °F 44.6 °F 93% 29.80 in 6.2 mi North 8.1 mph - N/A   Mostly Cloudy
8:00 AM 48.2 °F - 42.8 °F 82% 29.80 in 6.2 mi NNE 8.1 mph - N/A   Mostly Cloudy
8:30 AM 50.0 °F - 42.8 °F 76% 29.80 in 6.2 mi North 10.4 mph - N/A   Scattered Clouds
9:00 AM 50.0 °F - 42.8 °F 76% 29.80 in 6.2 mi NNE 15.0 mph - N/A   Scattered Clouds
9:30 AM 51.8 °F - 42.8 °F 71% 29.80 in 6.2 mi NE 13.8 mph - N/A   Mostly Cloudy
10:00 AM 51.8 °F - 41.0 °F 67% 29.80 in 6.2 mi North 11.5 mph - N/A   Mostly Cloudy
10:30 AM 51.8 °F - 42.8 °F 71% 29.80 in 6.2 mi NE 9.2 mph - N/A   Mostly Cloudy
11:00 AM 50.0 °F - 44.6 °F 82% 29.80 in 6.2 mi North 10.4 mph - N/A   Mostly Cloudy
11:30 AM 50.0 °F - 44.6 °F 82% 29.80 in 6.2 mi North 10.4 mph - N/A Rain Light Rain
12:00 PM 50.0 °F - 46.4 °F 87% 29.80 in 6.2 mi North 11.5 mph - N/A Rain Light Rain
12:30 PM 50.0 °F - 46.4 °F 87% 29.80 in 6.2 mi North 10.4 mph - N/A Rain Light Rain
1:00 PM 50 °F - 46 °F 83% 29.80 in 19 mi North 11.2 mph - - Rain Light Rain
1:00 PM 50.0 °F - 46.4 °F 87% 29.80 in 6.2 mi North 11.5 mph - N/A   Mostly Cloudy
1:30 PM 50.0 °F - 46.4 °F 87% 29.80 in 6.2 mi NNE 11.5 mph - N/A   Mostly Cloudy
2:00 PM 51.8 °F - 46.4 °F 82% 29.80 in 6.2 mi NE 10.4 mph - N/A   Mostly Cloudy
2:30 PM 51.8 °F - 46.4 °F 82% 29.80 in 6.2 mi NE 6.9 mph - N/A   Mostly Cloudy
3:00 PM 51.8 °F - 46.4 °F 82% 29.80 in 6.2 mi NE 5.8 mph - N/A   Mostly Cloudy
3:30 PM 55.4 °F - 46.4 °F 72% 29.77 in 6.2 mi North 8.1 mph - N/A   Mostly Cloudy
4:00 PM 55.4 °F - 46.4 °F 72% 29.77 in 6.2 mi NNE 10.4 mph - N/A   Mostly Cloudy
4:30 PM 55.4 °F - 46.4 °F 72% 29.77 in 6.2 mi North 10.4 mph - N/A   Mostly Cloudy
5:00 PM 55.4 °F - 48.2 °F 77% 29.77 in 6.2 mi NNE 9.2 mph - N/A   Mostly Cloudy
5:30 PM 53.6 °F - 48.2 °F 82% 29.80 in 6.2 mi NNE 12.7 mph - N/A Rain Light Rain Showers
6:00 PM 53.6 °F - 46.4 °F 77% 29.80 in 6.2 mi NE 17.3 mph - N/A   Mostly Cloudy
6:30 PM 53.6 °F - 44.6 °F 72% 29.80 in 6.2 mi NE 17.3 mph - N/A   Mostly Cloudy
7:00 PM 53 °F - 45 °F 65% 29.81 in 19 mi NNE 15.7 mph - -   Partly Cloudy
7:00 PM 53.6 °F - 44.6 °F 72% 29.80 in 6.2 mi NNE 16.1 mph - N/A   Mostly Cloudy
7:30 PM 53.6 °F - 44.6 °F 72% 29.80 in 6.2 mi NE 16.1 mph - N/A   Mostly Cloudy
8:00 PM 53.6 °F - 44.6 °F 72% 29.80 in 6.2 mi ENE 11.5 mph - N/A   Mostly Cloudy
8:30 PM 51.8 °F - 44.6 °F 76% 29.83 in 6.2 mi NE 9.2 mph - N/A   Mostly Cloudy
9:00 PM 51.8 °F - 44.6 °F 76% 29.83 in 6.2 mi NE 8.1 mph - N/A   Mostly Cloudy
9:30 PM 50.0 °F - 44.6 °F 82% 29.83 in 6.2 mi NE 10.4 mph - N/A   Mostly Cloudy
10:00 PM 50.0 °F - 44.6 °F 82% 29.86 in 6.2 mi NE 8.1 mph - N/A   Mostly Cloudy
10:30 PM 50.0 °F - 44.6 °F 82% 29.86 in 6.2 mi NNE 5.8 mph - N/A   Mostly Cloudy
11:00 PM 50.0 °F - 44.6 °F 82% 29.86 in 6.2 mi NNE 9.2 mph - N/A   Mostly Cloudy
11:30 PM 48.2 °F - 41.0 °F 76% 29.86 in 6.2 mi NNE 11.5 mph - N/A   Mostly Cloudy